Regional Weather Roundup
Issued by NWS

Home | Current Version | Previous Version | Text Only | Print | Product List | Glossary On
Versions: 1 2 3 4 5 6 7 8 9 10 11 12 13 14 15 16 17 18 19 20 21 22 23 24 25 26 27 28 29 30 31 32 33 34 35 36 37 38 39 40 41 42 43 44 45 46 47 48 49 50
000
ASUS45 KSLC 231910
RWRUT

UTAH REGIONAL WEATHER ROUNDUP
NATIONAL WEATHER SERVICE SALT LAKE CITY UT
100 PM MDT FRI JUN 23 2017

UTZ001>011-023>025-232000-

NORTHERN UTAH

CITY           SKY/WX    TMP DP  RH WIND       PRES   REMARKS
BRIGHAM CITY   SUNNY     76  29  18 SW3       30.18S
HILL AFB       SUNNY     75  33  21 NW5       30.20S
LOGAN          SUNNY     76  33  21 NW5       30.19F
OGDEN          SUNNY     77  31  18 VRB5      30.17F
SALT LAKE CITY SUNNY     81  34  18 NW8       30.16F
TOOELE VALLEY  SUNNY     77  37  24 NW6       30.19S
WENDOVER         N/A     80  24  12 SE10      30.17F
HEBER CITY     SUNNY     79  32  18 CALM      30.20S
WEST JORDAN    SUNNY     77  47  35 N6        30.20S

$$

UTZ011>015-024>027-232000-

CENTRAL/NORTHEAST UTAH

CITY           SKY/WX    TMP DP  RH WIND       PRES   REMARKS
PROVO AIRPORT  SUNNY     78  39  24 W8        30.18S
MOAB/CANYONLAN SUNNY     89  22   8 VRB3      30.05F
DELTA          SUNNY     82  21  10 N6        30.16S
PRICE          SUNNY     86  20   9 W10G17    30.16F
RICHFIELD      SUNNY     84  32  15 NE7G13    30.17F
ROOSEVELT      SUNNY     79  32  18 SE5       30.19S
VERNAL         SUNNY     78  35  21 VRB6      30.17F

$$

UTZ013>016-019>022-027-232000-

SOUTHERN UTAH

CITY           SKY/WX    TMP DP  RH WIND       PRES   REMARKS
BRYCE CANYON   SUNNY     83  30  14 W9G18     30.30F
CEDAR CITY     SUNNY     87  28  12 MISG      30.16F
MILFORD        SUNNY     87  26  11 N13       30.15S
ST GEORGE      CLEAR     99  32   9 VRB5      29.93F HX  93
HANKSVILLE     SUNNY     90  23   9 CALM      30.08F
KANAB          SUNNY     95  30  10 NW6       30.10F
BLANDING       SUNNY     90  28  10 W13G22    30.20S

$$

REGIONAL REPORTS     COLORADO/ARIZONA

CITY           SKY/WX    TMP DP  RH WIND       PRES   REMARKS
CRAIG, CO      SUNNY     76  29  17 W8        30.23S
GRAND JUNCTION SUNNY     87  21   9 VRB7      30.07F
RIFLE, CO      SUNNY     84  26  12 VRB7      30.11F
MONTROSE, CO   SUNNY     84  27  12 N10       30.14F
CORTEZ, CO     SUNNY     90  16   6 NW14G22   30.14R
COLORADO CITY    N/A     99  32   9 W6        30.10F HX  93
PAGE, AZ       SUNNY     97  28   8 VRB7      30.02F HX  91
GRAND CANYON   SUNNY     92  28  10 SW9       30.22F
KINGMAN, AZ    SUNNY    102  43  13 SW14G21   29.97S HX  97
FLAGSTAFF, AZ  SUNNY     88  19   8 SW14      30.24F

$$

REGIONAL REPORTS    NEVADA/IDAHO/WYOMING

CITY           SKY/WX    TMP DP  RH WIND       PRES   REMARKS
LAS VEGAS, NV  MOSUNNY  104  20   5 SE6       29.86F HX  96
ELY, NY        SUNNY     81  27  14 E6        30.24F
ELKO, NV       SUNNY     80  23  12 E6        30.22F
POCATELLO, ID  SUNNY     72  32  23 NE5       30.23F
BURLEY, ID     SUNNY     71  35  26 NE5       30.20F
FORT BRIDGER,    N/A     70  30  22 W6        30.33F
EVANSTON, WY   SUNNY     71  34  25 MISG      30.29F
ROCK SPRINGS,  SUNNY     67  29  24 SW5       30.29S
KEMMERER, WY     N/A     66  30  26 SW14      30.31F

$$



USA.gov is the U.S. government's official web portal to all federal, state and local government web resources and services.